Startseite
Über Mich
AHP4
Galerie
Sehschlangen
Tourenbuch
Bookmarks
Elektronik
Bewertung
Geschichten
[Tagesmessung] [Jahreswerte] [Information]

Messwerte vom 25.10.2020

Die letzten Messwerte von 12:43:35 Uhr:
KategorieMesswert
Temperatur [°C]16
Luftdruck [mBar]990
Sonneneinstrahlung213
Wind [km/h]6
Niederschlag [l/m²]0
rel.Luftfeucht.68.8%

Diagramme
Messwerte vom 25.10.2020
Tagesaggregation
KategorieMinimumMaximumSchnittSumme
Temperatur [°C]91612.1444
Luftdruck [mBar]989995992.0630
Sonneneinstrahlung22581.9704
Wind [km/h]21
rF [%]67.696.685.78
Niederschlag [l/m²]0
Einordnung alsVegetationstag

Messungen an benachbarten Tagen: Zur Jahresaggregation 2020
Tabelle aller Messwerte
UhrzeitTemperatur [°C]Luftdruck [mBar]SonneWind [km/h]Regen [l/m²]rF [%]
00:01:35 13 995 0 12 0 82.1
00:04:35 13 995 0 4 0 82.2
00:07:37 13 995 0 4 0 82.5
00:10:35 13 994 0 7 0 82.4
00:13:34 13 995 0 6 0 82.3
00:16:35 13 995 0 2 0 82.5
00:19:37 13 995 0 3 0 82.9
00:22:35 13 994 0 6 0 82.5
00:25:35 13 995 0 7 0 82.4
00:28:36 13 995 0 4 0 82.8
00:31:36 13 995 0 4 0 83.6
00:34:36 13 995 0 0 0 83.7
00:37:36 12 995 0 1 0 84.5
00:40:36 12 995 0 3 0 84.9
00:43:36 12 995 0 7 0 85
00:46:35 12 995 0 5 0 85.1
00:49:36 12 995 0 5 0 85.2
00:52:35 12 995 0 2 0 85.2
00:55:35 12 995 0 6 0 85.2
00:58:33 12 995 0 6 0 85.4
01:01:34 12 995 0 9 0 85.3
01:04:37 12 994 0 5 0 85.2
01:07:35 12 995 0 5 0 85.4
01:10:35 12 995 0 7 0 85.3
01:13:34 12 995 0 14 0 85.3
01:16:33 12 995 0 5 0 85.6
01:19:36 12 994 0 2 0 85.8
01:22:35 12 994 0 4 0 85.7
01:25:37 12 995 0 6 0 85.6
01:28:35 12 994 0 5 0 85.5
01:31:35 12 995 0 2 0 85.3
01:34:33 12 994 0 7 0 85.5
01:37:34 12 995 0 6 0 85.5
01:40:35 12 995 0 5 0 85.6
01:43:39 12 994 0 8 0 85.4
01:46:33 12 994 0 3 0 85.3
01:49:32 12 994 0 4 0 85.5
01:52:34 12 995 0 4 0 85.5
01:55:34 12 994 0 7 0 85.5
01:58:35 12 995 0 9 0 85.7
02:01:37 12 994 0 3 0 86.1
02:04:35 12 994 0 4 0 86.2
02:04:36 11 994 0 4 0 88.6
02:07:35 11 993 0 8 0 88.9
02:07:36 12 995 0 4 0 86.3
02:10:35 12 995 0 3 0 86.5
02:13:34 11 994 0 6 0 89.6
02:13:35 12 995 0 6 0 86.6
02:16:36 12 994 0 6 0 86.9
02:16:37 11 993 0 0 0 89.8
02:19:33 12 995 0 8 0 87.1
02:19:34 11 994 0 3 0 89.7
02:22:34 12 994 0 9 0 87.2
02:22:35 11 994 0 3 0 90.1
02:25:36 12 994 0 6 0 86.8
02:28:34 11 993 0 0 0 90.8
02:28:36 12 994 0 7 0 86.8
02:31:36 10 993 0 0 0 90.8
02:31:38 12 994 0 5 0 86.6
02:34:34 10 993 0 6 0 91.5
02:34:35 12 994 0 3 0 86.5
02:37:35 10 993 0 3 0 92.1
02:37:38 12 995 0 6 0 86.5
02:40:34 12 995 0 3 0 86.7
02:43:36 12 995 0 12 0 87.2
02:46:34 12 994 0 7 0 87.2
02:46:35 10 993 0 9 0 94
02:49:35 11 993 0 8 0 93.8
02:49:36 12 994 0 4 0 88
02:52:34 12 994 0 3 0 87.6
02:52:35 11 993 0 2 0 92.4
02:55:34 11 993 0 5 0 91.6
02:55:36 11 994 0 1 0 87.7
02:58:33 11 993 0 4 0 91.1
02:58:36 11 994 0 4 0 87.9
03:01:34 10 993 0 3 0 91
03:04:34 11 993 0 4 0 91.2
03:07:37 11 993 0 3 0 91.7
03:10:33 11 993 0 3 0 91.6
03:13:35 11 993 0 3 0 92.1
03:16:33 11 993 0 3 0 92.1
03:19:34 11 993 0 5 0 92.3
03:22:40 11 992 0 4 0 92.3
03:25:35 11 993 0 9 0 92.3
03:28:35 11 992 0 3 0 92.5
03:31:34 11 993 0 3 0 92.3
03:34:34 11 993 0 3 0 92.5
03:37:35 11 992 0 4 0 92.4
03:40:35 11 991 0 3 0 92.2
03:43:33 11 992 0 1 0 91.9
03:46:35 11 992 0 4 0 91.9
03:49:36 11 992 0 1 0 92
03:52:36 11 992 0 4 0 92
03:55:35 11 992 0 3 0 92.1
03:58:37 11 991 0 1 0 92.2
04:01:37 11 992 0 2 0 92.1
04:04:37 11 992 0 1 0 91.9
04:07:36 11 992 0 1 0 92
04:10:34 11 991 0 3 0 92.1
04:13:35 11 992 0 4 0 92.4
04:16:34 11 992 0 2 0 92.4
04:19:34 10 992 0 3 0 92.3
04:22:34 11 992 0 1 0 92.3
04:25:35 11 992 0 2 0 92.5
04:28:35 11 992 0 2 0 92.5
04:31:34 10 992 0 1 0 92.4
04:34:34 10 992 0 1 0 92.6
04:37:36 10 992 0 3 0 92.5
04:40:35 10 991 0 5 0 93.1
04:43:34 10 992 0 2 0 93.9
04:46:35 10 992 0 5 0 94.5
04:49:34 10 992 0 3 0 95
04:52:33 10 992 0 2 0 95.3
04:55:36 10 992 0 0 0 95.2
04:58:32 9 991 0 0 0 95
05:01:35 9 991 0 0 0 95
05:04:34 9 992 0 0 0 95.5
05:07:33 9 991 0 0 0 95.8
05:10:37 9 992 0 6 0 95.8
05:13:35 9 992 0 3 0 96.2
05:16:35 9 992 0 4 0 96.3
05:19:34 9 992 0 3 0 96.6
05:22:36 10 991 0 4 0 96.6
05:25:35 10 991 0 8 0 96.6
05:28:37 10 991 0 1 0 96.5
05:31:34 10 991 0 4 0 96
05:34:36 10 991 0 6 0 95.6
05:37:33 10 991 0 5 0 95.3
05:40:33 10 991 0 3 0 94.4
05:43:35 10 992 0 3 0 93.8
05:46:35 10 992 0 4 0 93.4
05:49:36 10 991 0 3 0 93.2
05:52:35 10 992 0 2 0 93.1
05:55:37 10 991 0 3 0 93.2
05:58:33 10 991 0 3 0 93.5
06:01:36 10 992 0 0 0 93.9
06:04:34 10 991 0 2 0 94
06:07:35 10 991 0 0 0 94.7
06:10:32 10 991 0 5 0 94.8
06:13:34 10 991 0 4 0 95.2
06:16:34 10 991 0 4 0 95.4
06:19:34 10 991 0 2 0 95.4
06:22:36 10 991 0 0 0 95.3
06:25:35 10 991 0 2 0 95.2
06:28:35 10 991 0 5 0 95
06:31:33 10 991 0 2 0 94.9
06:34:34 10 991 0 2 0 95
06:37:35 10 991 3 3 0 95.4
06:40:35 10 991 6 2 0 95.4
06:43:33 10 991 9 2 0 95.3
06:46:35 10 991 15 2 0 95.8
06:49:36 10 991 22 0 0 96.1
06:52:33 9 991 31 0 0 96
06:55:33 9 991 40 1 0 96.3
06:58:33 9 991 47 1 0 96.3
07:01:35 9 991 54 4 0 96.3
07:04:33 9 991 62 2 0 96.6
07:07:35 9 991 72 0 0 96.6
07:10:34 9 991 83 0 0 96.6
07:13:35 9 991 94 3 0 96.6
07:16:34 10 991 104 7 0 96.6
07:19:34 10 991 113 3 0 96.6
07:22:35 10 991 121 1 0 96.5
07:25:36 10 991 128 3 0 96.1
07:28:37 11 991 135 3 0 95.2
07:31:36 11 991 141 0 0 94
07:34:36 11 991 147 4 0 93.1
07:37:36 11 991 151 2 0 92.6
07:40:37 11 991 155 2 0 91.9
07:43:34 11 991 158 1 0 91.8
07:46:35 11 991 162 0 0 91.9
07:49:37 11 991 166 0 0 92
07:52:36 11 991 171 0 0 92.1
07:55:37 11 991 176 0 0 92.7
07:58:36 11 991 179 2 0 93
08:01:36 11 991 180 2 0 93.2
08:04:35 11 991 182 1 0 93.4
08:07:37 11 991 184 8 0 93.5
08:10:36 11 991 186 3 0 93.8
08:13:34 11 991 187 1 0 93
08:16:38 12 991 189 4 0 90.7
08:19:35 12 991 189 7 0 89.9
08:22:37 12 991 189 5 0 88.3
08:25:37 13 991 187 2 0 84.9
08:28:37 13 991 186 8 0 84.6
08:31:37 13 991 183 6 0 82.7
08:34:36 13 991 181 6 0 82.1
08:37:36 13 991 175 10 0 81.3
08:40:36 13 991 174 8 0 80.4
08:43:37 13 991 174 11 0 80.6
08:46:36 13 991 173 10 0 80.8
08:49:36 13 991 172 6 0 81
08:52:35 13 991 184 9 0 81.3
08:55:35 13 991 189 9 0 80.9
08:58:36 14 991 188 8 0 80.5
09:01:36 14 991 188 12 0 80.8
09:04:39 14 991 186 17 0 79.7
09:07:37 14 991 186 10 0 79.6
09:10:39 14 991 190 7 0 79.2
09:13:36 14 991 191 8 0 79.1
09:16:37 14 991 195 8 0 79.5
09:19:36 14 991 199 7 0 79.5
09:22:38 14 991 200 15 0 79.2
09:25:37 14 991 201 8 0 78.9
09:28:38 14 991 200 9 0 79.3
09:31:35 14 991 202 12 0 79.2
09:34:35 14 991 205 5 0 79.1
09:37:35 14 991 207 11 0 79.2
09:40:37 14 991 207 9 0 78.1
09:43:37 14 991 208 9 0 77.6
09:46:37 14 991 209 10 0 77.2
09:49:35 14 991 210 9 0 77.3
09:52:36 14 991 211 9 0 77.8
09:55:36 14 991 211 10 0 77
09:58:37 14 991 212 9 0 76.6
10:01:37 14 991 213 9 0 77
10:04:35 14 991 213 13 0 77
10:07:34 14 991 214 11 0 76.5
10:10:36 14 991 213 21 0 76.4
10:13:36 14 991 213 14 0 75.8
10:16:35 15 991 213 15 0 76.1
10:19:35 15 991 212 14 0 75.6
10:22:36 15 991 211 11 0 75.4
10:25:37 15 991 210 14 0 75.6
10:28:36 15 991 210 14 0 75
10:31:38 15 990 210 10 0 75.2
10:34:34 15 991 210 11 0 74.6
10:37:35 15 991 210 11 0 74.1
10:40:36 15 991 212 14 0 74.6
10:43:36 15 991 214 13 0 74.7
10:46:36 15 991 213 11 0 75.5
10:49:37 15 991 212 17 0 75.6
10:52:35 15 991 211 8 0 75.4
10:55:37 15 991 210 19 0 74.9
10:58:35 15 991 213 10 0 74.7
11:01:35 15 990 215 9 0 74.2
11:04:36 15 991 215 8 0 74.2
11:07:36 15 991 213 10 0 73.5
11:10:37 15 990 211 8 0 72.3
11:13:36 15 991 209 12 0 72
11:16:35 15 991 201 8 0 72.2
11:19:37 15 991 199 11 0 71.6
11:22:36 15 991 199 16 0 71.2
11:25:33 15 991 201 14 0 71.3
11:28:37 15 991 203 8 0 71.9
11:31:35 15 990 203 9 0 71.2
11:34:35 15 990 205 8 0 71.4
11:37:36 15 990 212 6 0 71.5
11:40:35 15 991 214 9 0 71.6
11:43:34 15 991 216 7 0 71.6
11:46:33 15 991 218 7 0 71.7
11:49:36 15 991 218 11 0 71.3
11:52:35 15 991 220 9 0 71.3
11:55:36 16 991 220 5 0 70.9
11:58:35 16 991 218 8 0 71.2
12:01:35 16 991 217 11 0 70.3
12:04:35 16 991 221 11 0 70.7
12:07:37 16 990 224 18 0 70.7
12:10:38 16 990 225 5 0 70.9
12:13:35 16 990 223 4 0 70.5
12:16:35 16 991 220 6 0 69.1
12:19:37 16 990 218 6 0 67.6
12:22:39 16 991 214 8 0 68.2
12:25:36 16 991 211 5 0 68.3
12:28:37 16 990 215 17 0 68
12:31:36 16 990 219 5 0 68.4
12:34:37 16 990 218 10 0 68.4
12:37:37 16 989 216 12 0 69.1
12:40:38 16 990 216 6 0 68.9
12:43:35 16 990 213 6 0 68.8

Letzte Änderung : 29-Nov-2019
Copyright Jens Köhler, Wolfsburg, Obere Dorfstraße 10d